STARLINK-34997

Last updated on Tue Sep 16 2025 00:02:07 GMT+0000 (Coordinated Universal Time)

1 65418U 25192Q 25258.58341435 -.01476960 00000+0 -15567-1 0 9997 2 65418 53.1597 338.0908 0001220 68.3170 174.8010 15.66410082 3622
UTC large
Height (km)
Speed (km/s)
/
Latitude / Longitude
Inclination (degrees)
Orbital Period (minutes)
Azimuth
Elevation
Range (km)
Doppler Factor

Next 0 passes for location: London (51.5072 / 0.1276)

Sorry there are no passes over London.